Molokai, HI

9:19 PM HST on March 26, 2017 (GMT -1000)
Molokai

Weather History for PHMK - May, 2013

Change the Weather History Date:

Monday, May 20, 2013

  Actual Average Record
Temperature  
Mean Temperature 70 °F -  
Max Temperature 77 °F 81 °F 87 °F (1988)
Min Temperature 64 °F 66 °F 52 °F (1989)
Cooling Degree Days 6    
Growing Degree Days 20 (Base 50)    
Moisture  
Dew Point 63 °F    
Average Humidity 76    
Maximum Humidity 93    
Minimum Humidity 60    
Precipitation  
Precipitation 0.04 in - - ()
Sea Level Pressure  
Sea Level Pressure 29.98 in    
Wind  
Wind Speed 5 mph (North)    
Max Wind Speed 12 mph    
Max Gust Speed 16 mph    
Visibility 10 miles    
Events Rain    
Averages and records for this station are not official NWS values.
T = Trace of Precipitation, MM = Missing Value Source: NWS Daily Summary

Daily Weather History Graph

Daily Weather History Graph

Search for Another Location

Airport or City:

Trip Planner

Search our weather history database for the weather conditions in past years. The results will help you decide how hot, cold, wet, or windy it might be!

Date:

Astronomy

May. 20, 2013 Rise Set
Actual Time 5:48 AM HST 7:01 PM HST
Civil Twilight 5:24 AM HST 7:25 PM HST
Nautical Twilight 4:55 AM HST 7:54 PM HST
Astronomical Twilight 4:26 AM HST 8:23 PM HST
Moon 2:52 PM HST (5/20) 2:14 AM HST (5/20)
Length of Visible Light 14h 01m
Length of Day
13h 13m
Waxing Gibbous, 77% of the Moon is Illuminated
May 20
Waxing Gibbous
May 24
Full
May 31
Last Quarter
Jun 8
New
Jun 16
First Quarter

Hourly Weather History & Observations

Time (HST) Temp. Dew Point Humidity Pressure Visibility Wind Dir Wind Speed Gust Speed Precip Events Conditions
12:54 AM - - N/A% 29.97 in 10.0 mi NE 3.5 mph - 0.04 in   Overcast
1:54 AM - - N/A% 29.96 in 10.0 mi North 6.9 mph - N/A   Mostly Cloudy
2:54 AM - - N/A% 29.94 in 10.0 mi NNE 3.5 mph - N/A   Overcast
3:54 AM 66.0 °F 64.0 °F 93% 29.96 in 10.0 mi North 3.5 mph - N/A   Overcast
4:54 AM - - N/A% 29.95 in 10.0 mi North 4.6 mph - N/A   Mostly Cloudy
5:54 AM 64.0 °F 62.1 °F 93% 29.98 in 10.0 mi NNW 4.6 mph - N/A   Partly Cloudy
6:54 AM 70.0 °F 64.9 °F 84% 29.99 in 10.0 mi NNE 4.6 mph - N/A   Scattered Clouds
7:54 AM 72.0 °F 63.0 °F 73% 30.00 in 10.0 mi North 5.8 mph - N/A   Scattered Clouds
8:54 AM 72.0 °F 62.1 °F 71% 30.00 in 10.0 mi NNE 8.1 mph - N/A   Scattered Clouds
9:54 AM 73.9 °F 63.0 °F 68% 30.00 in 10.0 mi North 8.1 mph - N/A   Scattered Clouds
10:54 AM 77.0 °F 64.0 °F 64% 29.98 in 10.0 mi North 11.5 mph 16.1 mph N/A   Scattered Clouds
11:54 AM 72.0 °F 63.0 °F 73% 29.98 in 9.0 mi Variable 6.9 mph - 0.00 in Rain Light Rain
12:54 PM 75.9 °F 63.0 °F 64% 29.97 in 10.0 mi North 8.1 mph - 0.00 in   Mostly Cloudy
1:54 PM 73.0 °F 64.9 °F 76% 29.96 in 9.0 mi Variable 6.9 mph - 0.00 in Rain Light Rain
2:54 PM 73.9 °F 62.1 °F 66% 29.94 in 10.0 mi Variable 6.9 mph - 0.00 in   Mostly Cloudy
3:54 PM 75.0 °F 60.1 °F 60% 29.94 in 10.0 mi NE 6.9 mph - N/A   Scattered Clouds
4:54 PM 73.0 °F 61.0 °F 66% 29.94 in 10.0 mi North 5.8 mph - 0.00 in Rain Light Rain
5:54 PM 72.0 °F 62.1 °F 71% 29.96 in 10.0 mi North 3.5 mph - 0.00 in   Mostly Cloudy
6:01 PM 71.6 °F 62.6 °F 73% 29.95 in 10.0 mi NNE 3.5 mph - N/A   Overcast
6:54 PM 72.0 °F 63.0 °F 73% 29.98 in 9.0 mi Calm Calm - N/A   Overcast
7:09 PM 71.6 °F 62.6 °F 73% 29.97 in 10.0 mi Calm Calm - N/A   Overcast
7:17 PM 71.6 °F 64.4 °F 78% 29.97 in 10.0 mi Calm Calm - N/A   Mostly Cloudy
7:54 PM 70.0 °F 64.0 °F 81% 30.00 in 10.0 mi Calm Calm - N/A   Overcast
8:54 PM 66.9 °F 62.1 °F 84% 30.01 in 10.0 mi North 3.5 mph - N/A   Clear
9:54 PM 64.9 °F 62.1 °F 90% 30.03 in 10.0 mi Calm Calm - N/A   Scattered Clouds
10:54 PM 64.9 °F 63.0 °F 93% 30.03 in 10.0 mi North 3.5 mph - N/A   Mostly Cloudy
11:54 PM 64.9 °F 62.1 °F 90% 30.02 in 10.0 mi Calm Calm - N/A   Clear